Weather in Glubokoye

Russia / Pskov Oblast     56°36′37″N   29°01′16″E
temp.,
°C
wind,
m/s
gust,
m/s
humid.,
%
clouds,
%
prec.,
mm/h
press.,
hPa
HPBL,
m
19 september, sun
sun1900:00+7ene61363100 0.0 1018917
03:00+6ene61469100 0.0 1017847
06:00+5ene61471100 0.0 1017787
09:00+6ene61473100 0.0 1017821
12:00+6ene61478100 0.3 1017940
15:00+5ene61489100 1.3 1017981
18:00+5ne71493100 2.9 10171034
21:00+4ene61497100 4.9 10181035
20 september, mon
mon2000:00+4ne61397100 0.4 1018958
03:00+3ne61397100 0.9 1017934
06:00+3ne51397100 0.2 1017944
09:00+4ne51297100 0.4 1018911
12:00+4ne51397100 0.0 1019774
15:00+4ne51294100 0.1 1019907
18:00+5ne51189100 0.1 10191081
21:00+4ne51097100 0.1 1020964
21 september, tue
tue2100:00+4ne4997100 0.4 1020825
03:00+3nne4994100 0.6 1019692
06:00+3nne4989100 0.0 1019570
09:00+3nne3886100 0.0 1019471
12:00+4nne4781100 0.0 1019596
15:00+4n3792100 0.0 1020603
18:00+4n3793100 0.1 1020711
21:00+4n3796100 0.1 1020742
22 september, wed
wed2200:00+4n3797100 0.0 1020711
03:00+4nnw3797100 0.1 1019770
06:00+5n3894100 0.0 1019860
09:00+5n4887100 0.0 1019722
12:00+8n4663100 0.0 10191099
15:00+10n464850 0.0 10181444
18:00+9nne265734 0.0 1017259
21:00+6ne117593 0.0 101713
23 september, thu
thu2300:00+6nw117611 0.0 101529
03:00+2nw228913 0.0 101419
06:00+3nw128298 0.0 101279
09:00+5wsw1175100 0.0 1010112
12:00+9ssw2256100 0.0 1006656
15:00+11ssw3451100 0.0 10031267
18:00+9s3663100 0.0 1000356
21:00+7sse3973100 0.0 998373